Showing default

OPTUS 10, 40146

Orbit data source: Space-Track

OPTUS 10, 40146 is a payload satellite owned by SingTel Optus (AU) in GEO that was launched on Thu, 11 Sep 2014 UTC via an ARIANE 5ECA launch vehicle from the French Guiana (FRGUI). Payload-class satellites include a variety of spacecraft equipped with specific instruments for various scientific and technological missions. These include communications satellites like Starlink; space stations such as the ISS; scientific satellites like the Hubble; Earth observation satellites from companies like Planet Labs, Umbra, and HawkEye 360; GPS; miniature CubeSats for education and research; and military/defense satellites.

Not visible in the next 10 days
Identifier
40146, 2014-054A
Orbit
GEO
Country
Flag of AUAU / AUS
Related business
Manufacturer
SS/Loral (MDA)
Mission
Operational Commercial Communications
Bus & Motor
LS-1300LL, R-4D
Mass
3,970 kg wet, ~2,000 kg dry
Launch date (UTC)
2014-09-11 (11 years ago)
Launch vehicle
ARIANE 5ECA
Launch site
French Guiana (FRGUI)
Object type
Payload
Rocket body
Debris
Shape & HBR
Box + 2 Pan, 12.3 m
Radar Cross Section
38.560 m², Large (>1 m²)

Expand to show TLE details & history
Last TLE update: 9 hours ago

TLE from 9 hours ago
0 OPTUS 10
1 40146U 14054A   25351.58614912 -.00000122  00000-0  00000-0 0  9997
2 40146   0.0410 282.3068 0003035 342.7345 188.4327  1.00270785 41211
Epoch: 2025-12-17T14:04Z
TLE epoch observation values (Epoch: 2025-12-17T14:04:03.283Z)
Latitude
0.02499°
Longitude
155.98907°
Altitude
35,799.085 km
Speed
3.074 km/s
True Right ascension
06h 13m 49s
True Declination
0° 01' 30"
Sunlit
Object was in daylight at epoch
Visualization orbit readout
Latitude
Unknown
Longitude
Unknown
Altitude
Unknown
Speed
Unknown
Apparent Right ascension
Unknown
Apparent Declination
Unknown
Sunlit
N/A
Visualization observer readout
Local Sidereal Time
21:58:13
Azimuth
Unknown
Elevation
Unknown
Doppler factor
Unknown
Orbital elements
Apogee altitude
35,800.743 km
Perigee altitude
35,775.148 km
Semi-major axis
42,166.083 km
Eccentricity
0.0003
Inclination
0.041°
RAAN
282.3068°
Arg. of periapsis
342.7345°
True anomaly
188.4276°
Mean anomaly
188.4327°
Eccentric anomaly
188.43015°
Mean motion
0.25067 °/min
Orbital period
1,436.16 mins
BSTAR
0
Loading maneuver chart data...
Computing Atmospheric mass density...
Loading historical data...
Loading historical data...
Loading historical data...
Loading historical data...
Loading historical data...
Loading historical data...
Loading historical data...
Other satellites on launch #54 in the year 2014 (2014-09-11 UTC)

Documentation

Showing up to 5 results
|